When you browse on this site, cookies collect data to enhance your experience and personalize the content and advertising you see.
Visit our Privacy Policy to learn more. By continuing to use the site, you agree to this use of cookies and data.
  • In Österreich
  • Länderverzeichnis
  • Für 7 Tage
  • Wassertemperatur
  • Satellitenkarten
  • Wetterkarte
  • News
  • Widgets
  • user-avatar
    Anmelden

    Stündliche Wetter Newcastle

    Heute, 26 Mai, Sonntag

    Zeit Temperatur Niederschläge Wind Luftdruck Luftfeuchtigkeit
    00:00 +14°C° 0 mm 4 m/S 761 mmHg 59%
    01:00 +14°C° 0 mm 4 m/S 761 mmHg 59%
    02:00 +14°C° 0 mm 4 m/S 761 mmHg 58%
    03:00 +14°C° 0 mm 5 m/S 761 mmHg 58%
    04:00 +14°C° 0 mm 5 m/S 761 mmHg 57%
    05:00 +14°C° 0 mm 5 m/S 761 mmHg 57%
    06:00 +14°C° 0 mm 5 m/S 761 mmHg 57%
    07:00 +14°C° 0 mm 5 m/S 761 mmHg 57%
    08:00 +15°C° 0 mm 5 m/S 761 mmHg 55%
    09:00 +16°C° 0 mm 5 m/S 761 mmHg 53%
    10:00 +17°C° 0 mm 5 m/S 761 mmHg 52%
    11:00 +20°C° 0 mm 5 m/S 760 mmHg 47%
    12:00 +22°C° 0 mm 4 m/S 760 mmHg 43%
    13:00 +25°C° 0 mm 4 m/S 759 mmHg 38%
    14:00 +24°C° 0 mm 3 m/S 759 mmHg 42%
    15:00 +24°C° 0 mm 3 m/S 759 mmHg 46%
    16:00 +23°C° 0 mm 2 m/S 758 mmHg 50%
    17:00 +20°C° 0 mm 2 m/S 759 mmHg 54%
    18:00 +18°C° 0 mm 2 m/S 759 mmHg 58%
    19:00 +16°C° 0 mm 2 m/S 759 mmHg 63%
    20:00 +15°C° 0 mm 2 m/S 759 mmHg 64%
    21:00 +15°C° 0 mm 2 m/S 760 mmHg 66%
    22:00 +13°C° 0 mm 3 m/S 760 mmHg 68%
    23:00 +12°C° 0 mm 3 m/S 760 mmHg 70%

    Morgen, 27 Mai, Montag

    Zeit Temperatur Niederschläge Wind Luftdruck Luftfeuchtigkeit
    00:00 +11°C° 0 mm 3 m/S 759 mmHg 73%
    01:00 +11°C° 0 mm 3 m/S 759 mmHg 75%
    02:00 +11°C° 0 mm 4 m/S 759 mmHg 74%
    03:00 +11°C° 0 mm 4 m/S 759 mmHg 72%
    04:00 +9°C° 0 mm 5 m/S 758 mmHg 71%
    05:00 +9°C° 0 mm 5 m/S 758 mmHg 68%
    06:00 +9°C° 0 mm 5 m/S 758 mmHg 66%
    07:00 +9°C° 0 mm 6 m/S 758 mmHg 63%
    08:00 +11°C° 0 mm 6 m/S 758 mmHg 57%
    09:00 +14°C° 0 mm 7 m/S 757 mmHg 51%
    10:00 +16°C° 0 mm 7 m/S 757 mmHg 45%
    11:00 +17°C° 0 mm 8 m/S 757 mmHg 42%
    12:00 +18°C° 0 mm 8 m/S 756 mmHg 39%
    13:00 +19°C° 0 mm 9 m/S 756 mmHg 36%
    14:00 +17°C° 0.1 mm 9 m/S 756 mmHg 42%
    15:00 +15°C° 0.1 mm 9 m/S 756 mmHg 47%
    16:00 +12°C° 0.1 mm 9 m/S 757 mmHg 53%
    17:00 +11°C° 0 mm 8 m/S 757 mmHg 50%
    18:00 +11°C° 0 mm 8 m/S 758 mmHg 47%
    19:00 +10°C° 0 mm 7 m/S 759 mmHg 44%
    20:00 +9°C° 0 mm 7 m/S 760 mmHg 45%
    21:00 +9°C° 0 mm 7 m/S 760 mmHg 46%
    22:00 +8°C° 0 mm 6 m/S 761 mmHg 47%
    23:00 +8°C° 0 mm 6 m/S 761 mmHg 48%

    übermorgen, 28 Mai, Dienstag

    Zeit Temperatur Niederschläge Wind Luftdruck Luftfeuchtigkeit
    00:00 +7°C° 0 mm 6 m/S 761 mmHg 50%
    01:00 +7°C° 0 mm 6 m/S 761 mmHg 51%
    02:00 +7°C° 0 mm 6 m/S 761 mmHg 52%
    03:00 +7°C° 0 mm 6 m/S 761 mmHg 53%
    04:00 +5°C° 0 mm 6 m/S 761 mmHg 54%
    05:00 +6°C° 0 mm 5 m/S 761 mmHg 56%
    06:00 +6°C° 0 mm 5 m/S 761 mmHg 57%
    07:00 +6°C° 0 mm 5 m/S 761 mmHg 59%
    08:00 +7°C° 0 mm 5 m/S 761 mmHg 55%
    09:00 +9°C° 0 mm 5 m/S 761 mmHg 51%
    10:00 +11°C° 0 mm 6 m/S 762 mmHg 47%
    11:00 +13°C° 0 mm 6 m/S 761 mmHg 44%
    12:00 +15°C° 0 mm 5 m/S 760 mmHg 41%
    13:00 +16°C° 0 mm 5 m/S 760 mmHg 38%
    14:00 +16°C° 0 mm 6 m/S 759 mmHg 39%
    15:00 +16°C° 0 mm 6 m/S 759 mmHg 40%
    16:00 +16°C° 0 mm 6 m/S 759 mmHg 40%
    17:00 +15°C° 0 mm 6 m/S 759 mmHg 42%
    18:00 +14°C° 0 mm 6 m/S 759 mmHg 43%
    19:00 +12°C° 0 mm 7 m/S 760 mmHg 45%
    20:00 +11°C° 0 mm 7 m/S 760 mmHg 47%
    21:00 +10°C° 0 mm 7 m/S 760 mmHg 49%
    22:00 +10°C° 0 mm 7 m/S 760 mmHg 51%
    23:00 +10°C° 0 mm 7 m/S 760 mmHg 52%

    29 Mai, Mittwoch

    Zeit Temperatur Niederschläge Wind Luftdruck Luftfeuchtigkeit
    00:00 +9°C° 0 mm 7 m/S 759 mmHg 54%
    01:00 +9°C° 0 mm 7 m/S 759 mmHg 56%
    02:00 +9°C° 0 mm 7 m/S 759 mmHg 56%
    03:00 +9°C° 0 mm 7 m/S 758 mmHg 56%
    04:00 +9°C° 0 mm 7 m/S 758 mmHg 57%
    05:00 +9°C° 0 mm 7 m/S 758 mmHg 58%
    06:00 +9°C° 0 mm 7 m/S 758 mmHg 59%
    07:00 +9°C° 0 mm 7 m/S 758 mmHg 60%
    08:00 +11°C° 0 mm 7 m/S 758 mmHg 56%
    09:00 +12°C° 0 mm 7 m/S 758 mmHg 52%
    10:00 +15°C° 0 mm 8 m/S 758 mmHg 47%
    11:00 +16°C° 0 mm 7 m/S 757 mmHg 47%
    12:00 +16°C° 0 mm 7 m/S 757 mmHg 48%
    13:00 +16°C° 0 mm 6 m/S 756 mmHg 48%
    14:00 +16°C° 0 mm 6 m/S 756 mmHg 49%
    15:00 +16°C° 0 mm 6 m/S 756 mmHg 50%
    16:00 +16°C° 0 mm 6 m/S 756 mmHg 51%
    17:00 +15°C° 0 mm 6 m/S 756 mmHg 55%
    18:00 +14°C° 0 mm 5 m/S 757 mmHg 60%
    19:00 +13°C° 0 mm 5 m/S 757 mmHg 64%
    20:00 +13°C° 0 mm 5 m/S 758 mmHg 68%
    21:00 +12°C° 0 mm 5 m/S 758 mmHg 71%
    22:00 +10°C° 0 mm 5 m/S 758 mmHg 75%
    23:00 +10°C° 0 mm 6 m/S 758 mmHg 71%

    30 Mai, Donnerstag

    Zeit Temperatur Niederschläge Wind Luftdruck Luftfeuchtigkeit
    00:00 +10°C° 0 mm 6 m/S 758 mmHg 68%
    01:00 +10°C° 0 mm 6 m/S 758 mmHg 65%
    02:00 +10°C° 0 mm 6 m/S 758 mmHg 66%
    03:00 +9°C° 0 mm 6 m/S 759 mmHg 68%
    04:00 +8°C° 0 mm 6 m/S 759 mmHg 69%
    05:00 +7°C° 0 mm 6 m/S 759 mmHg 69%
    06:00 +7°C° 0 mm 6 m/S 760 mmHg 70%
    07:00 +5°C° 0 mm 6 m/S 761 mmHg 70%
    08:00 +8°C° 0 mm 6 m/S 761 mmHg 62%
    09:00 +9°C° 0 mm 6 m/S 762 mmHg 55%
    10:00 +11°C° 0 mm 6 m/S 762 mmHg 47%
    11:00 +13°C° 0 mm 6 m/S 762 mmHg 43%
    12:00 +14°C° 0 mm 6 m/S 762 mmHg 40%
    13:00 +15°C° 0 mm 5 m/S 762 mmHg 36%
    14:00 +14°C° 0 mm 5 m/S 762 mmHg 38%
    15:00 +14°C° 0 mm 4 m/S 762 mmHg 40%
    16:00 +13°C° 0 mm 4 m/S 763 mmHg 42%
    17:00 +12°C° 0 mm 4 m/S 764 mmHg 45%
    18:00 +10°C° 0 mm 5 m/S 764 mmHg 47%
    19:00 +8°C° 0 mm 5 m/S 765 mmHg 49%
    20:00 +8°C° 0.3 mm 5 m/S 766 mmHg 52%
    21:00 +8°C° 0.3 mm 6 m/S 766 mmHg 55%
    22:00 +7°C° 0.3 mm 6 m/S 767 mmHg 57%
    23:00 +8°C° 0.2 mm 6 m/S 767 mmHg 58%

    31 Mai, Freitag

    Zeit Temperatur Niederschläge Wind Luftdruck Luftfeuchtigkeit
    00:00 +8°C° 0.2 mm 7 m/S 767 mmHg 58%
    01:00 +8°C° 0.2 mm 7 m/S 767 mmHg 59%
    02:00 +8°C° 0.3 mm 7 m/S 767 mmHg 61%
    03:00 +8°C° 0.3 mm 7 m/S 767 mmHg 62%
    04:00 +8°C° 0.3 mm 6 m/S 767 mmHg 64%
    05:00 +8°C° 0.3 mm 6 m/S 768 mmHg 66%
    06:00 +8°C° 0.3 mm 6 m/S 768 mmHg 68%
    07:00 +8°C° 0.3 mm 6 m/S 769 mmHg 70%
    08:00 +9°C° 0.7 mm 6 m/S 769 mmHg 70%
    09:00 +10°C° 0.7 mm 5 m/S 769 mmHg 71%
    10:00 +12°C° 0.7 mm 5 m/S 770 mmHg 71%
    11:00 +13°C° 0.8 mm 5 m/S 769 mmHg 72%
    12:00 +13°C° 0.8 mm 5 m/S 769 mmHg 72%
    13:00 +14°C° 0.8 mm 5 m/S 769 mmHg 73%
    14:00 +14°C° 0.9 mm 5 m/S 769 mmHg 78%
    15:00 +14°C° 0.9 mm 6 m/S 769 mmHg 83%
    16:00 +13°C° 0.9 mm 6 m/S 769 mmHg 88%
    17:00 +13°C° 1.7 mm 6 m/S 770 mmHg 90%
    18:00 +13°C° 1.7 mm 6 m/S 770 mmHg 92%
    19:00 +13°C° 1.7 mm 5 m/S 770 mmHg 94%
    20:00 +13°C° 3.5 mm 6 m/S 770 mmHg 94%
    21:00 +13°C° 3.5 mm 6 m/S 770 mmHg 94%
    22:00 +13°C° 3.5 mm 6 m/S 770 mmHg 94%
    23:00 +13°C° 2 mm 6 m/S 770 mmHg 94%
    Mehr zeigen